Terug naar catalogus

STARLINK-35421

ActiefCommunicatieVLEO
NORAD 66062·PAYLOAD·🇺🇸 United States

Gelanceerd Oct 19, 2025 vanaf Cape Canaveral Space Force Station

Loading…

Volgende Passages (komende 24 uur)

TLE

VersSource: CelesTrak SupGP

Epoch: Sep 14, 2026, 23:05 UTC

1 66062C 25235E   26257.96229167  .00060376  00000+0  17841-2 0  2572
2 66062  53.1582  83.3632 0001101  77.2002 109.7451 15.34355272    17

Volg STARLINK-35421 in realtime met AllMySat

Download on the App Store